Location: Newark
(42.8481°N, 0.4872°E)
Time: 17:39:19
(UTC+00:00)

Vanguard 2 - Pass Details

Date: 31 October 2020
Orbit: 554 x 2937 km, 32.9° (Epoch: 27 November)

Event Time Altitude Azimuth Distance (km) Brightness Sun altitude
Rises 18:50:37 0° 236° (SW) 4,805 12.5 -22.3°
Reaches altitude 10° 18:53:29 10° 231° (SW) 4,102 11.9 -22.9°
Maximum altitude 19:04:41 50° 160° (SSE) 2,894 10.2 -24.9°
Enters shadow 19:11:31 34° 112° (ESE) 3,789 10.4 -26.2°
Drops below altitude 10° 19:20:41 10° 93° (E) 5,723 - -27.8°
Sets 19:25:31 0° 89° (E) 6,792 - -28.7°
